User: anonymous   Login
Location: Unspecified
(40.9833°N, 0.0000°E)
Time: 19:18:31
(UTC+00:00)
Language:

Envisat - Orbit

View from above orbital plane
View from above orbital plane
View from above satellite
View from above satellite

Ground track
Ground track

The orbit data is extracted from the following two-line orbital elements,

1 27386U 02009A   19169.47987938 -.00000010  00000-0  10074-4 0  9996
2 27386  98.1489 190.5176 0001282  94.2834  69.7933 14.37950849906168
Epoch (UTC): 18 June 2019 11:31:01
Eccentricity: 0.0001282
inclination: 98.1489°
perigee height: 764 km
apogee height: 766 km
right ascension of ascending node: 190.5176°
argument of perigee: 94.2834°
revolutions per day: 14.37950849
mean anomaly at epoch: 69.7933°
orbit number at epoch: 90616

The dashed part of the orbit path shows where the satellite is in the earth's shadow,  

DLR